Hourly Data Report for October 31, 2013

All times are specified in Local Standard Time (LST). Add 1 hour to adjust for Daylight Saving Time where and when it is observed.

EMERSON AUTO
MANITOBA

49°00'00.000" N
97°14'15.000" W
242.00 m
5020881
71560
WEX

Download Data

Hourly Data (October 2013)
Hourly Data Report for October 31, 2013
Temp Definition
°C
Dew Point Temp Definition
°C
Rel Hum Definition
%
Wind Dir Definition
10's deg

Wind Spd Definition
km/h
Visibility Definition
km
Stn Press Definition
kPa
Hmdx Definition


Wind Chill Definition


Weather Definition


TIME
00:00 3.4 0.4 81 19 11   97.38     LegendNANA
01:00 2.9 0.1 82 18 9   97.33     LegendNANA
02:00 0.8 -0.8 89 17 9   97.25     LegendNANA
03:00 0.6 -0.3 94 17 7   97.18     LegendNANA
04:00 0.4 -0.9 91 17 11   97.13     LegendNANA
05:00 -0.2 -1.2 93 16 9   97.10   -3 LegendNANA
06:00 -1.8 -2.7 94 18 7   97.10   -4 LegendNANA
07:00 -1.5 -2.1 96 17 7   97.05   -4 LegendNANA
08:00 -1.2 -2.0 94 19 6   97.00   -3 LegendNANA
09:00 1.2 -0.4 89 24 6   96.97     LegendNANA
10:00 1.5 -0.9 84 24 6   96.96     LegendNANA
11:00 3.5 -1.2 71 27 7   96.97     LegendNANA
12:00 5.5 -0.3 66 23 6   96.90     LegendNANA
13:00 6.7 0.1 63 26 11   96.85     LegendNANA
14:00 6.6 1.1 68 31 15   96.80     LegendNANA
15:00 6.6 0.5 65 32 17   96.78     LegendNANA
16:00 5.9 0.7 69 32 19   96.79     LegendNANA
17:00 4.5 0.3 74 32 13   96.81     LegendNANA
18:00 0.8 -2.0 82 31 9   96.82     LegendNANA
19:00 -0.7 -2.6 87 31 13   96.84   -5 LegendNANA
20:00 -2.2 -4.0 87 32 9   96.83   -6 LegendNANA
21:00 -2.7 -3.8 92 29 13   96.86   -7 LegendNANA
22:00 -3.8 -5.0 91 28 6   96.90   -6 LegendNANA
23:00 -3.6 -4.4 94 28 2   96.88   -4 LegendNANA

Notes on Data Quality.

Legend

  • E = Estimated
  • M = Missing
  • NA = Not Available
  • ‡ = Partner data that is not subject to review by the National Climate Archives
Date modified: